Home > Weather > Ajaccio > Past weeks

Flag for France Weather for the Past 2 Weeks in Ajaccio, Corsica, France

Now
54 °F

Passing clouds.


Feels Like: 48 °F
Forecast: 45 / 53 °F
Wind: 23 mph from Northwest

Location: Ajaccio Airport

Current Time: Feb 10, 2016 at 11:56:15 AM

Latest Report: Feb 10, 2016 at 11:30 AM


Visibility: N/A

Pressure: 29.80 "Hg

Humidity: 58%

Dew point: 39 °F

Location of AjaccioLocation

Historic Weather in Ajaccio — Graph

°F

Ajaccio Temperature Yesterday

Maximum temperature yesterday: 61 °F (at 11:00 AM)
Minimum temperature yesterday: 45 °F (at 12:00 AM)
Average temperature yesterday: 54 °F

High & Low Weather Summary for the Past Weeks

 TemperatureHumidityPressure
High64 °F (Feb 7, 12:30 PM)100% (Jan 27, 12:30 AM)30.51 "Hg (Jan 27, 12:30 AM)
Low36 °F (Feb 4, 7:30 AM)27% (Feb 4, 1:30 PM)29.62 "Hg (Feb 9, 10:30 PM)
Average53 °F81%30.24 "Hg
* Reported Jan 26 10:00 AM — Feb 10 10:30 AM, Ajaccio, Weather by CustomWeather, © 2016

Note: Actual official high and low records may vary slightly from our data, if they occured in-between our weather recording intervals... More about our weather records

Advertising

Ajaccio Weather History for the Previous 24 Hours

 ConditionsComfort  
Time TempWeatherWind HumidityBarometerVisibility
10:30 AM
Wed, Feb 10
54 °FPartly sunny.16 mph58%29.80 "HgN/A
10:00 AM54 °FPartly sunny.12 mph58%29.77 "HgN/A
9:30 AM54 °FBroken clouds.13 mph58%29.77 "HgN/A
9:00 AM54 °FPartly sunny.14 mph63%29.77 "HgN/A
8:30 AM54 °FPartly sunny.13 mph63%29.77 "HgN/A
8:00 AM54 °FPartly sunny.13 mph63%29.77 "HgN/A
7:30 AM54 °FPartly sunny.13 mph63%29.74 "HgN/A
7:00 AM54 °FPartly cloudy.13 mph58%29.74 "HgN/A
6:30 AM54 °FPartly cloudy.15 mph58%29.74 "HgN/A
6:00 AM54 °FPartly cloudy.15 mph63%29.71 "HgN/A
5:30 AM55 °FOvercast.17 mph63%29.71 "HgN/A
5:00 AM55 °FOvercast.20 mph63%29.71 "HgN/A
4:30 AM55 °FOvercast.14 mph63%29.68 "HgN/A
4:00 AM55 °FOvercast.18 mph63%29.68 "HgN/A
3:30 AM55 °FClear.15 mph67%29.68 "Hg10 mi
3:00 AM55 °FPartly cloudy.12 mph72%29.65 "HgN/A
2:30 AM55 °FPassing clouds.7 mph77%29.68 "HgN/A
1:30 AM55 °FPartly cloudy.9 mph77%29.65 "HgN/A
1:00 AM55 °FMostly cloudy.14 mph82%29.65 "HgN/A
12:30 AM55 °FLight rain. Partly cloudy.16 mph82%29.65 "Hg4 mi
12:00 AM57 °FLight rain. Partly cloudy.21 mph82%29.62 "Hg4 mi
11:00 PM
Tue, Feb 9
57 °FLight rain. Passing clouds.28 mph88%29.62 "Hg5 mi
10:30 PM59 °FOvercast.26 mph82%29.62 "Hg6 mi
10:00 PM57 °FMostly cloudy.25 mph88%29.65 "Hg6 mi
9:30 PM57 °FPassing clouds.18 mph88%29.68 "Hg6 mi
9:00 PM57 °FPassing clouds.20 mph88%29.68 "HgN/A
8:30 PM57 °FPartly cloudy.23 mph88%29.71 "Hg6 mi
8:00 PM57 °FLight rain. Partly cloudy.22 mph94%29.71 "Hg4 mi
7:30 PM57 °FPassing clouds.17 mph94%29.74 "Hg4 mi
7:00 PM57 °FDrizzle. Overcast.17 mph88%29.77 "Hg6 mi
6:30 PM57 °FLight rain. Passing clouds.17 mph88%29.77 "Hg6 mi
6:00 PM57 °FPassing clouds.17 mph88%29.77 "HgN/A
5:30 PM59 °FPartly sunny.18 mph82%29.80 "HgN/A
5:00 PM59 °FPartly sunny.20 mph82%29.83 "HgN/A
4:30 PM59 °FPartly sunny.16 mph82%29.83 "HgN/A
4:00 PM59 °FPartly sunny.14 mph77%29.86 "HgN/A
3:30 PM59 °FPartly sunny.14 mph77%29.89 "HgN/A
3:00 PM59 °FPartly sunny.14 mph77%29.89 "HgN/A
2:30 PM59 °FPartly sunny.12 mph77%29.92 "HgN/A
2:00 PM59 °FBroken clouds.10 mph77%29.95 "HgN/A
1:30 PM59 °FPartly sunny.8 mph72%29.98 "HgN/A
1:00 PM59 °FPartly sunny.9 mph77%30.01 "HgN/A
12:30 PM61 °FPartly sunny.10 mph72%30.04 "HgN/A
11:30 AM59 °FPartly sunny.6 mph72%30.04 "HgN/A
11:00 AM61 °FBroken clouds.8 mph63%30.07 "HgN/A
Weather by CustomWeather, © 2016

See weather overviewHow to use our weather pages